GFSSW_850_temp_000.txt.gz
Temp
11 11 12 13 13 13 13 14 14 14 15 15 16 16 15 15 17 16 19 22 22 21 20 22 21 21 18 19 19 19 16 15 16 17 19 21 22 23 24 24 25 26 26 27 27
9 10 11 11 12 12 12 12 13 13 13 14 14 15 15 15 16 16 22 21 21 21 21 21 21 19 18 18 19 18 14 16 19 20 19 20 20 22 22 23 22 24 25 25 26
5 6 6 8 9 10 11 11 12 12 12 13 13 14 14 14 14 18 20 21 21 22 22 21 20 19 17 18 19 17 18 19 21 21 21 20 20 22 22 21 23 23 24 25 25
8 7 6 7 7 7 8 9 11 11 11 12 12 12 12 11 12 18 18 18 19 21 22 19 18 17 15 16 18 16 18 20 21 21 21 19 21 21 21 22 23 24 24 25 25
7 7 7 8 8 8 8 8 7 7 9 10 9 8 10 9 11 19 18 18 17 18 19 17 18 18 15 16 18 16 17 20 20 20 20 21 20 20 21 23 23 24 24 25 25
6 6 6 6 7 8 8 8 8 8 7 6 5 4 5 4 14 17 18 18 17 17 17 16 18 18 18 18 16 18 18 19 20 20 21 20 20 21 22 22 23 24 25 25 25
6 6 6 6 7 7 7 8 8 8 7 6 5 4 4 6 15 15 15 18 18 17 17 18 19 18 19 18 20 19 17 17 18 21 20 21 19 20 22 22 23 24 25 25 25
5 5 5 6 6 6 7 8 8 8 8 7 5 4 4 8 12 15 16 18 17 16 17 17 18 18 18 18 18 18 17 17 19 20 20 20 19 21 23 23 23 24 25 26 26
5 5 5 5 6 6 6 7 8 8 8 7 4 3 4 10 11 15 16 16 18 16 15 16 17 17 17 16 15 15 16 16 17 20 20 19 19 21 23 23 23 23 24 24 25
3 3 4 4 5 5 6 7 7 6 6 4 3 4 7 10 10 13 14 15 16 16 16 15 17 14 12 14 15 15 15 15 17 20 19 18 18 20 22 22 22 23 23 23 25
2 3 3 4 4 3 5 6 5 5 4 5 5 5 8 9 11 12 13 14 12 15 13 15 14 14 16 16 16 16 16 17 18 20 19 17 17 18 20 20 20 21 22 24 26
3 3 3 4 4 4 4 4 3 2 3 5 6 5 7 10 6 11 12 12 12 13 15 14 15 17 16 16 16 16 16 16 17 19 19 17 18 19 19 20 21 22 22 23 24
3 3 3 4 4 4 3 3 3 3 3 5 7 6 7 8 6 9 10 14 13 13 15 15 17 18 17 16 15 15 16 16 16 19 18 17 17 18 19 20 21 23 23 24 24
3 3 3 3 4 4 4 3 3 4 3 5 6 8 7 7 8 11 11 14 14 13 15 15 17 17 16 16 16 15 17 17 17 17 16 17 14 17 17 19 19 22 25 26 26
3 3 3 2 2 2 3 3 4 4 3 9 9 9 10 9 10 11 12 13 13 13 14 14 16 16 16 17 18 17 19 18 18 16 16 17 14 17 17 17 19 19 24 26 26
3 3 3 3 3 3 3 3 4 3 4 8 10 9 9 9 10 11 11 12 15 14 15 16 18 17 17 18 18 19 18 17 15 14 14 16 15 16 16 19 20 19 23 24 23
3 3 3 2 3 2 2 3 2 2 8 8 7 8 10 9 10 11 11 11 12 12 13 15 15 17 18 17 17 17 14 12 11 11 13 17 15 18 18 18 19 20 22 23 18
4 4 3 2 2 2 2 2 2 6 7 8 7 9 10 9 7 9 10 10 13 14 14 13 13 16 17 17 17 17 16 12 14 13 15 16 15 18 18 19 21 21 21 21 16
4 4 3 3 3 2 2 2 3 5 6 6 7 8 8 8 7 7 8 11 13 13 14 14 14 17 18 19 19 17 14 16 15 16 15 15 17 19 20 20 21 19 18 17 16
3 3 3 3 2 2 3 2 3 6 6 6 5 7 6 7 7 5 7 9 9 10 15 15 14 17 17 18 19 16 16 15 15 14 15 16 16 18 21 21 20 17 14 15 15
2 2 2 2 2 1 2 2 3 5 6 5 5 5 6 7 7 5 5 8 6 8 10 15 14 16 15 16 17 16 15 15 15 12 14 14 15 15 19 19 19 17 17 16 17
0 -1 2 2 2 1 1 3 4 5 5 5 5 5 6 7 6 4 5 4 3 7 7 8 11 13 15 16 18 18 18 14 16 13 14 14 15 19 17 17 17 17 18 16 16
-0 -0 2 2 1 1 2 2 4 4 5 5 5 6 6 6 6 6 5 5 4 5 7 8 8 12 14 17 16 17 17 18 13 12 15 17 16 18 17 17 17 16 17 16 16
0 -1 2 2 1 1 2 2 3 5 5 5 5 5 6 6 7 6 6 6 4 6 7 7 6 9 14 16 15 16 17 18 16 14 15 17 19 20 21 17 16 16 17 17 17
1 -0 1 1 -1 1 1 1 2 3 4 4 4 5 4 5 5 5 5 6 6 5 5 5 5 8 10 14 16 17 17 17 17 18 17 18 18 18 19 17 15 16 16 16 16
1 1 1 1 1 2 1 1 2 3 3 3 4 4 4 4 5 4 5 5 4 5 5 4 5 7 9 13 15 16 17 17 18 18 18 19 18 18 19 17 15 17 16 16 17
1 1 1 1 0 1 2 2 2 2 4 4 4 3 3 5 6 5 6 6 6 5 5 4 5 6 7 9 15 15 17 17 17 18 19 18 21 18 18 16 15 17 18 18 18

GFSSW_850_temp_006.txt.gz
Temp
9 10 11 11 11 11 11 12 12 13 13 14 15 16 16 17 18 17 18 19 19 19 19 18 20 18 19 21 22 23 25 26 28 28 29 29 29 27 26 27 27 27 27 27 26
7 8 8 9 9 9 9 9 10 10 11 12 13 13 14 15 16 16 17 19 20 19 19 18 19 19 20 21 22 23 26 27 29 29 29 29 28 28 27 27 27 28 28 27 26
7 7 8 8 8 8 8 8 8 8 9 9 11 11 12 13 13 18 18 19 20 21 21 18 20 20 21 22 23 24 25 28 28 28 28 28 27 27 27 27 27 28 27 26 26
6 6 6 7 7 8 8 8 8 8 8 7 8 9 11 11 18 17 17 16 17 20 20 19 19 21 22 24 23 24 25 27 27 28 27 27 26 27 27 26 26 26 26 26 26
6 6 6 6 6 7 7 8 8 8 7 7 7 7 8 9 12 15 15 16 15 15 16 19 20 21 23 24 24 25 26 26 26 25 26 26 26 26 26 25 25 25 25 26 26
5 4 5 6 6 6 7 7 7 7 7 8 8 7 5 9 12 13 15 16 15 15 16 17 19 21 23 24 25 25 25 25 25 25 25 26 26 26 26 25 25 26 26 26 26
3 4 4 4 5 6 6 6 7 7 7 8 8 6 5 8 12 12 13 14 13 14 17 17 19 19 21 23 23 24 24 25 25 25 26 25 25 26 26 25 25 26 26 26 26
3 3 3 3 4 5 6 6 6 7 8 8 8 4 6 10 10 13 11 13 12 12 13 16 17 18 20 21 22 24 24 24 26 26 25 24 24 28 28 27 27 27 26 26 26
4 3 3 4 4 5 6 6 7 7 7 7 5 4 9 9 8 10 9 10 13 13 13 14 16 18 20 21 21 23 23 24 25 27 27 26 25 27 27 27 26 26 26 26 26
4 4 4 4 4 5 6 7 7 6 5 4 5 6 8 11 10 10 11 10 11 13 14 14 17 20 21 21 22 22 23 24 25 27 27 25 25 27 27 27 26 26 26 26 25
4 4 4 4 4 5 5 5 8 8 7 9 11 9 11 11 11 10 11 11 11 12 16 17 18 20 21 21 22 23 24 24 26 27 26 25 25 26 27 27 25 26 26 26 26
4 4 4 4 5 5 4 5 5 4 6 8 8 8 8 9 9 9 10 11 13 14 17 19 19 22 22 23 22 22 23 23 25 25 25 24 24 25 26 26 26 26 26 26 26
4 4 4 4 4 3 3 4 3 3 6 9 9 9 10 9 10 10 10 12 14 15 17 19 20 22 22 22 22 22 22 22 23 24 24 23 23 24 25 26 26 26 26 25 25
4 4 4 4 4 3 4 3 3 3 6 12 11 10 10 9 10 10 10 11 14 15 17 18 22 22 22 22 23 22 23 22 22 22 22 24 22 24 25 26 26 26 26 26 26
4 3 4 3 2 3 4 3 3 4 8 12 11 10 11 11 12 13 12 11 13 15 17 17 19 21 22 22 23 22 22 22 22 21 21 22 22 23 25 25 26 26 26 26 27
4 4 4 3 2 2 2 2 3 6 8 11 12 12 12 13 13 13 12 11 12 14 17 18 21 21 22 23 23 23 22 22 22 22 21 22 23 24 25 26 27 28 27 27 26
4 4 4 3 3 2 2 4 6 7 11 11 10 11 12 12 13 13 13 13 12 12 13 17 18 21 22 22 23 22 21 21 20 20 20 24 23 24 26 26 27 28 27 26 23
4 4 3 2 2 2 2 5 5 9 9 11 10 11 11 12 12 11 12 12 15 14 16 15 16 19 22 22 21 21 21 22 20 21 23 24 22 25 26 27 27 27 27 26 22
4 3 3 2 3 2 2 5 8 9 9 8 9 10 11 12 11 11 11 9 10 14 14 16 17 21 22 22 23 21 22 24 23 23 22 25 25 25 26 27 27 27 26 25 22
2 3 4 2 2 2 2 5 7 8 8 9 8 9 9 10 10 10 9 4 5 11 15 13 16 21 21 22 23 23 23 22 23 20 21 23 23 23 25 27 28 28 27 23 21
3 5 4 3 2 3 5 7 7 7 7 8 8 8 8 9 10 9 7 8 4 8 10 13 14 19 21 21 22 23 23 23 23 23 22 22 23 26 26 27 28 28 26 22 21
3 8 3 3 5 5 5 6 6 7 8 8 9 8 8 8 9 9 8 8 6 7 8 14 13 15 20 22 23 24 23 22 22 21 23 23 22 27 26 27 26 28 25 22 21
3 4 4 3 4 4 5 6 7 7 8 8 8 9 9 8 8 8 9 9 5 5 6 10 13 16 19 21 22 23 23 23 23 24 21 22 23 28 27 27 26 26 23 22 21
4 6 6 4 4 4 4 6 7 7 8 7 8 8 8 8 8 6 5 5 4 4 4 6 12 15 19 20 22 21 22 23 22 22 22 23 24 26 27 26 26 24 22 22 21
4 6 4 5 5 5 5 5 5 5 8 8 8 8 8 7 8 4 4 4 6 5 6 9 13 15 17 18 20 22 22 23 22 23 22 24 24 25 27 26 26 24 23 22 22
3 2 3 4 5 5 6 6 6 5 4 6 7 8 8 8 8 7 8 7 7 8 7 10 14 16 16 18 19 21 22 22 22 23 23 23 24 27 26 25 25 23 23 23 22
1 1 1 4 5 4 5 5 3 3 4 6 6 7 7 8 8 8 8 8 8 8 7 7 10 14 15 18 19 20 22 22 22 23 23 23 24 22 23 23 23 23 23 23 22

GFSSW_850_temp_009.txt.gz
Temp
9 9 9 8 9 9 10 10 11 12 12 13 14 14 15 16 16 16 16 18 19 20 20 18 19 20 20 22 23 24 26 27 29 29 31 32 32 31 30 29 30 30 29 29 29
8 8 8 8 8 8 9 9 9 9 10 11 12 12 14 15 16 15 17 17 18 19 20 20 20 20 21 23 23 25 26 27 30 31 31 32 32 32 31 31 30 30 29 30 29
7 8 8 8 9 9 8 8 8 9 9 9 9 11 12 13 13 19 18 19 18 18 19 20 21 22 23 24 25 26 26 28 29 30 30 31 30 30 31 30 30 30 29 29 29
7 7 7 7 8 8 8 8 8 8 8 8 9 9 11 12 19 16 17 18 16 16 17 17 21 23 25 26 26 27 27 28 28 29 29 30 30 30 30 29 29 29 28 28 28
6 6 6 6 7 7 7 8 8 8 8 8 8 9 9 12 14 16 16 15 15 17 17 18 21 23 25 26 26 28 28 28 28 28 28 29 29 29 30 29 28 28 28 27 28
5 5 5 5 6 6 6 7 7 7 8 8 8 8 6 11 14 14 14 14 15 17 19 19 21 23 25 26 27 27 28 28 28 28 28 29 29 29 29 28 28 28 28 28 28
4 4 4 5 5 6 6 7 7 7 8 8 8 6 7 10 12 13 13 14 15 16 17 20 20 23 24 26 26 26 27 28 28 28 29 28 28 28 28 28 28 28 28 28 28
4 4 5 5 5 6 6 7 7 7 8 8 7 5 7 11 12 13 13 14 15 15 15 17 20 21 22 23 25 26 27 25 28 29 28 28 26 28 28 28 28 29 29 29 28
3 3 3 4 5 6 7 8 8 8 7 7 6 6 10 12 11 12 12 13 14 15 16 16 17 19 22 23 23 25 24 26 27 29 29 28 27 29 28 28 28 28 28 28 28
3 4 4 5 5 5 6 7 8 8 7 6 7 9 11 12 14 12 12 13 14 15 16 16 17 20 21 23 23 23 24 25 25 28 29 28 28 29 29 28 28 28 28 28 28
4 4 4 5 5 6 7 8 9 10 9 11 13 12 13 14 13 13 13 13 14 15 17 18 19 20 21 22 24 25 26 26 27 29 28 27 28 29 29 28 28 28 28 28 27
4 4 5 5 5 6 6 8 8 7 8 9 11 11 12 12 12 12 13 13 15 16 17 19 19 21 23 24 24 24 24 25 26 28 27 27 26 28 28 28 27 27 27 27 27
4 4 4 5 5 6 7 7 6 7 8 10 12 13 13 13 13 13 13 14 15 16 17 18 21 22 22 23 24 24 24 24 25 26 27 26 25 26 27 27 27 27 27 27 27
4 4 4 5 6 6 8 6 7 7 8 13 14 13 12 12 14 13 13 14 16 16 18 18 21 22 22 22 24 23 25 25 25 24 24 26 25 26 27 27 28 28 28 28 27
4 5 5 4 3 6 6 6 6 7 8 14 14 12 13 14 15 15 14 14 14 16 17 18 19 20 22 23 24 24 26 25 25 24 24 24 24 25 27 27 28 29 28 28 27
5 5 6 6 5 5 6 6 6 6 9 13 14 13 14 15 15 15 15 14 14 15 17 18 20 21 22 23 25 25 25 25 25 24 23 24 24 25 27 28 29 29 29 29 28
5 5 5 4 5 5 5 6 5 8 12 10 11 12 12 14 15 16 15 15 14 14 14 16 18 21 22 22 24 25 23 22 21 22 22 25 25 26 28 29 29 29 29 28 27
5 5 4 4 4 4 3 5 6 11 11 13 13 13 12 14 14 15 14 14 15 15 16 16 16 18 21 23 23 24 24 23 21 22 24 26 24 27 29 29 28 28 28 27 26
5 6 4 4 4 4 4 5 6 10 11 10 11 10 12 12 13 14 14 14 13 11 10 16 17 21 21 23 24 23 24 25 25 26 26 27 27 28 29 29 28 29 29 28 25
3 7 5 5 4 4 6 7 10 10 10 10 9 10 10 11 12 13 13 10 11 12 11 12 16 20 22 22 23 24 26 23 25 23 23 26 26 27 27 28 29 29 29 27 24
5 8 6 5 4 5 6 10 11 10 10 9 9 10 11 9 10 11 11 12 10 11 12 13 12 17 20 21 22 24 25 24 25 25 24 24 26 28 27 28 29 30 29 26 24
7 11 7 6 5 7 8 10 9 11 10 11 8 10 9 9 10 12 9 12 9 9 9 14 11 13 18 22 24 25 24 24 24 23 26 26 26 29 28 28 29 29 27 25 24
7 9 7 7 6 6 8 10 10 10 11 11 9 11 11 9 8 10 9 5 7 7 6 8 11 11 15 20 23 23 24 25 24 26 24 25 26 29 28 28 28 29 27 25 24
7 10 10 8 7 6 7 8 9 10 10 10 10 10 8 10 10 6 7 7 5 5 5 5 9 12 15 20 22 22 24 25 24 24 25 25 27 27 28 28 27 27 26 25 24
8 10 7 8 7 6 7 8 8 7 8 9 10 10 9 10 11 9 8 10 8 7 5 6 10 14 12 17 23 23 24 25 24 25 25 26 26 28 28 28 27 26 26 25 24
5 5 5 6 7 7 8 7 8 8 7 8 8 10 10 9 10 9 10 11 8 9 5 7 11 14 11 14 19 23 24 25 25 25 26 26 26 29 29 27 26 26 26 25 25
4 3 3 6 8 7 8 7 7 7 8 8 8 9 9 10 10 10 10 11 10 9 9 8 11 13 10 14 20 20 24 25 25 26 26 25 26 26 26 25 24 24 26 26 25

GFSSW_850_temp_015.txt.gz
Temp
8 8 8 8 8 8 9 9 9 10 10 11 12 13 13 14 16 16 17 21 19 20 19 20 19 20 20 19 20 22 18 18 21 23 25 28 28 29 30 31 30 30 29 29 29
7 7 8 8 7 8 8 8 9 9 9 10 11 11 12 12 14 16 19 19 19 19 18 19 19 19 19 21 21 21 18 20 23 24 24 27 28 29 29 29 29 29 30 28 29
6 7 7 7 7 7 7 7 8 8 8 8 9 10 11 11 13 17 18 19 19 18 18 19 19 20 20 21 22 22 20 22 23 25 25 26 27 28 28 27 29 29 29 29 29
6 6 7 7 7 7 7 7 7 7 7 8 8 9 10 10 12 16 17 17 17 18 17 17 18 18 19 20 22 21 23 23 24 24 25 25 26 27 28 28 29 29 29 29 29
6 6 6 7 7 7 7 7 7 7 7 7 7 8 8 7 10 15 15 16 16 17 16 17 17 17 16 19 21 21 22 24 24 25 25 25 26 26 27 28 29 29 29 28 29
5 5 6 6 6 7 7 8 8 8 7 7 7 6 4 4 12 15 14 14 15 16 16 17 17 17 18 19 19 21 23 24 25 25 25 26 26 27 28 28 28 28 28 28 29
6 6 6 7 7 7 7 8 9 9 8 8 7 6 3 5 13 14 13 14 15 16 16 17 18 19 19 18 20 21 20 22 24 25 25 26 25 26 27 28 28 28 28 28 28
5 6 6 6 7 7 8 9 9 9 9 8 7 5 4 13 12 12 14 14 14 15 15 16 17 17 18 19 20 20 20 19 22 23 25 25 23 25 27 27 27 27 27 28 28
5 6 6 7 7 7 8 9 10 10 9 8 7 6 6 12 12 14 13 12 14 14 15 16 17 17 17 16 16 18 18 19 21 24 24 24 24 25 26 27 27 27 28 28 28
6 6 6 7 7 7 8 9 10 10 9 8 6 6 8 13 14 14 14 14 14 14 15 15 16 15 15 15 15 17 18 20 20 22 23 23 24 25 26 26 26 27 27 28 28
6 6 7 7 8 7 8 8 9 10 8 9 10 9 11 13 13 14 14 15 15 15 13 15 13 13 15 16 17 19 20 20 21 23 23 23 23 24 26 26 26 27 27 27 28
6 7 7 8 8 8 8 8 9 9 9 9 9 10 11 11 12 13 14 14 15 13 14 13 13 15 17 18 17 18 18 19 21 23 22 22 22 24 24 24 25 26 27 28 28
7 7 7 8 8 8 8 8 8 8 8 9 10 10 11 11 12 12 13 14 14 13 13 13 15 17 17 17 17 18 18 18 19 21 22 21 21 22 24 25 26 27 27 28 28
6 7 6 7 7 8 8 8 8 8 5 9 13 13 12 11 12 13 14 15 14 13 13 13 15 16 17 17 18 17 20 20 20 20 18 21 19 21 22 23 24 25 26 27 28
7 7 7 6 7 7 7 7 7 7 4 9 10 10 12 13 15 14 15 15 14 14 14 13 14 15 15 17 19 18 20 20 20 20 19 20 18 21 22 22 22 24 26 28 28
7 7 7 6 6 7 7 7 6 5 5 7 11 13 13 13 14 14 15 15 15 15 14 14 16 16 16 18 19 19 19 19 19 18 17 20 20 21 21 22 23 23 26 27 27
7 7 7 6 6 7 7 7 5 5 9 10 12 13 13 11 13 14 14 12 12 12 12 13 14 16 17 15 17 17 16 14 15 16 16 20 20 21 21 23 24 23 25 25 27
8 7 7 7 7 7 7 5 5 8 9 13 12 12 11 8 8 10 11 12 14 14 12 12 11 15 17 15 15 15 16 15 13 15 17 20 19 20 24 24 26 27 28 24 23
8 7 7 8 7 7 7 5 5 7 10 10 12 9 10 11 7 8 9 11 13 13 10 10 11 14 15 16 17 16 15 18 17 18 18 19 21 23 24 24 23 25 25 22 22
7 7 9 8 8 7 6 6 8 8 8 8 8 10 9 10 10 7 7 10 7 9 9 11 9 13 14 15 15 16 18 16 17 15 15 19 20 20 23 24 24 23 20 21 21
7 7 8 8 8 7 3 7 9 6 8 8 9 9 9 9 8 9 9 10 8 8 7 8 9 11 13 13 12 14 15 16 17 17 16 17 19 23 24 22 23 21 22 22 21
5 7 9 9 7 7 4 8 10 9 10 10 11 8 9 10 9 9 8 8 9 7 7 8 6 7 11 13 14 14 14 16 15 17 17 18 19 23 26 24 23 22 22 21 21
3 7 10 9 4 4 7 9 9 9 9 10 9 9 6 7 7 8 7 10 8 8 8 7 6 6 10 13 14 14 16 17 16 16 17 18 19 25 24 23 23 22 22 21 21
4 6 9 8 8 7 7 7 8 10 11 10 10 6 6 7 8 9 8 10 9 9 9 6 7 6 6 10 9 9 10 14 17 16 18 20 21 24 23 23 22 22 21 21 20
5 7 7 5 5 6 7 7 8 8 9 9 9 9 8 7 7 8 8 8 10 8 6 5 6 8 8 10 10 9 10 10 11 17 18 20 21 24 21 21 22 22 22 21 20
5 5 5 4 6 7 6 6 7 8 8 8 5 6 7 6 7 6 8 8 8 9 7 5 6 7 7 10 10 10 11 10 11 14 20 21 22 24 23 24 23 23 23 22 21
4 4 4 5 6 6 6 7 7 8 8 8 7 5 6 6 9 8 9 9 8 8 9 7 6 7 8 10 9 9 10 11 13 14 19 21 22 22 21 20 19 23 23 22 21